CW1707 Weather Reports


Display with metric or nautical units.
time (UTC)temp
F
wind
direction
speed
MPH
gust
MPH
rain 1hr
in
rain 24hr
in
rain mn
in
humidity
%
barometer
mb
20180919084702 71 82 0.0 0.0 0.00 0.00 0.00 94 1011.1
20180919084202 72 82 0.0 0.0 0.00 0.00 0.00 94 1011.1
20180919083702 72 82 0.0 0.0 0.00 0.00 0.00 94 1011.1
20180919083202 72 82 0.0 0.0 0.00 0.00 0.00 94 1011.0
20180919082703 72 82 0.0 2.0 0.00 0.00 0.00 94 1011.1
20180919082202 72 82 0.0 2.0 0.00 0.00 0.00 94 1011.1
20180919081703 72 82 0.0 0.0 0.00 0.00 0.00 94 1011.1
20180919081203 72 82 0.0 0.0 0.00 0.00 0.00 94 1011.1
20180919080702 72 82 0.0 1.0 0.00 0.00 0.00 94 1011.1
20180919080203 72 82 0.0 1.0 0.00 0.00 0.00 94 1011.1
20180919075702 72 82 0.0 3.0 0.00 0.00 0.00 94 1011.1
20180919075202 72 82 0.0 3.0 0.00 0.00 0.00 94 1011.1
20180919074702 72 82 0.0 3.0 0.00 0.00 0.00 94 1011.1
20180919074203 72 82 1.0 3.0 0.00 0.00 0.00 94 1011.1
20180919073702 72 82 0.0 1.0 0.00 0.00 0.00 94 1011.2
20180919073202 72 82 0.0 1.0 0.00 0.00 0.00 94 1011.2
20180919072702 72 82 0.0 1.0 0.00 0.00 0.00 94 1011.2
20180919072202 72 82 0.0 1.0 0.00 0.00 0.00 93 1011.3
20180919071702 72 82 0.0 1.0 0.00 0.00 0.00 93 1011.3
20180919071202 72 82 0.0 1.0 0.00 0.00 0.00 93 1011.3
20180919070704 72 82 0.0 1.0 0.00 0.00 0.00 93 1011.3
20180919070202 72 82 0.0 1.0 0.00 0.00 0.00 93 1011.3
20180919065702 72 82 0.0 1.0 0.00 0.00 0.00 93 1011.2
20180919065202 72 82 0.0 1.0 0.00 0.00 0.00 93 1011.3
20180919064702 72 82 0.0 1.0 0.00 0.00 0.00 93 1011.3
20180919064203 72 82 0.0 1.0 0.00 0.00 0.00 93 1011.2
20180919063702 72 82 0.0 3.0 0.00 0.00 0.00 92 1011.2
20180919063203 73 82 0.0 3.0 0.00 0.00 0.00 92 1011.2
20180919062702 73 82 0.0 2.0 0.00 0.00 0.00 92 1011.2
20180919062202 73 82 0.0 2.0 0.00 0.00 0.00 92 1011.2
20180919061703 73 82 0.0 1.0 0.00 0.00 0.00 92 1011.2
20180919061202 73 82 0.0 1.0 0.00 0.00 0.00 92 1011.1
20180919060702 73 82 0.0 1.0 0.00 0.00 0.00 92 1011.1
20180919060203 73 82 0.0 2.0 0.00 0.00 0.00 91 1011.1
20180919055702 73 82 0.0 3.0 0.00 0.00 0.00 91 1011.2
20180919055203 73 82 1.0 3.0 0.00 0.00 0.00 91 1011.2
20180919054702 73 82 0.0 3.0 0.00 0.00 0.00 91 1011.2
20180919054203 73 82 0.0 3.0 0.00 0.00 0.00 91 1011.2
20180919053702 73 82 0.0 3.0 0.00 0.00 0.00 91 1011.2
20180919053203 73 82 0.0 2.0 0.00 0.00 0.00 91 1011.2
20180919052702 73 82 0.0 2.0 0.00 0.00 0.00 90 1011.2
20180919052202 73 82 0.0 1.0 0.00 0.00 0.00 90 1011.2
20180919051702 73 82 0.0 3.0 0.00 0.00 0.00 90 1011.1
20180919051203 73 82 0.0 3.0 0.00 0.00 0.00 90 1011.2
20180919050704 73 82 0.0 1.0 0.00 0.00 0.00 90 1011.2
20180919050202 73 82 0.0 1.0 0.00 0.00 0.00 90 1011.2
20180919045702 73 82 0.0 3.0 0.00 0.00 0.00 89 1011.2
20180919045202 74 82 0.0 3.0 0.00 0.00 0.00 89 1011.2
20180919044702 74 82 0.0 3.0 0.00 0.00 0.00 89 1011.3
20180919044203 74 81 0.0 3.0 0.00 0.00 0.00 89 1011.2
20180919043702 74 80 0.0 7.0 0.00 0.00 0.00 89 1011.3
20180919043202 74 80 1.0 7.0 0.00 0.00 0.00 88 1011.3
20180919042703 74 90 0.0 5.0 0.00 0.00 0.00 88 1011.3
20180919042202 74 84 2.0 5.0 0.00 0.00 0.00 88 1011.4
20180919041702 74 90 0.0 3.0 0.00 0.00 0.00 88 1011.4
20180919041202 74 89 0.0 3.0 0.00 0.00 0.00 88 1011.5
20180919040702 74 97 1.0 6.0 0.00 0.00 0.00 87 1011.6
20180919040202 74 90 1.0 6.0 0.00 0.00 0.00 87 1011.6
20180919035702 74 104 1.0 6.0 0.00 0.00 0.00 87 1011.6
20180919035203 75 84 1.0 6.0 0.00 0.00 0.00 86 1011.6
20180919034702 75 84 0.0 5.0 0.00 0.00 0.00 86 1011.7
20180919034203 75 76 0.0 5.0 0.00 0.00 0.00 86 1011.7
20180919033703 75 72 1.0 3.0 0.00 0.00 0.00 85 1011.7
20180919033202 75 71 0.0 2.0 0.00 0.00 0.00 85 1011.7
20180919032702 75 85 0.0 2.0 0.00 0.00 0.00 85 1011.6
20180919032202 75 86 0.0 1.0 0.00 0.00 0.00 84 1011.7
20180919031702 75 86 0.0 7.0 0.00 0.00 0.00 84 1011.7
20180919031202 76 87 0.0 7.0 0.00 0.00 0.00 84 1011.6
20180919030703 76 87 1.0 7.0 0.00 0.00 0.00 84 1011.6
20180919030203 76 82 0.0 3.0 0.00 0.00 0.00 83 1011.7
20180919025702 76 83 0.0 3.0 0.00 0.00 0.00 83 1011.7
20180919025202 76 82 0.0 2.0 0.00 0.00 0.00 82 1011.7
20180919024702 76 82 0.0 3.0 0.00 0.00 0.00 82 1011.6
20180919024203 76 80 0.0 3.0 0.00 0.00 0.00 82 1011.6
20180919023702 77 72 0.0 3.0 0.00 0.00 0.00 82 1011.6
20180919023203 77 71 0.0 3.0 0.00 0.00 0.00 81 1011.6
20180919022702 77 68 0.0 3.0 0.00 0.00 0.00 81 1011.6
20180919022202 77 67 0.0 3.0 0.00 0.00 0.00 80 1011.6
20180919021706 77 38 0.0 7.0 0.00 0.00 0.00 79 1011.5
20180919021202 78 79 1.0 7.0 0.00 0.00 0.00 79 1011.4
20180919020702 78 75 1.0 7.0 0.00 0.00 0.00 79 1011.3
20180919020203 78 56 0.0 9.0 0.00 0.00 0.00 78 1011.3
20180919015703 78 53 1.0 9.0 0.00 0.00 0.00 78 1011.3
20180919015202 78 29 0.0 9.0 0.00 0.00 0.00 77 1011.2
20180919014703 79 51 0.0 6.0 0.00 0.00 0.00 77 1011.0
20180919014202 79 82 0.0 6.0 0.00 0.00 0.00 76 1010.9
20180919013702 79 51 0.0 3.0 0.00 0.00 0.00 76 1011.0
20180919013202 79 36 0.0 3.0 0.00 0.00 0.00 75 1011.0
20180919012703 80 35 0.0 3.0 0.00 0.00 0.00 75 1010.9
20180919012202 80 39 0.0 6.0 0.00 0.00 0.00 75 1010.8
20180919011702 81 48 0.0 10.0 0.00 0.00 0.00 75 1010.8
20180919011202 81 57 2.0 12.0 0.00 0.00 0.00 75 1010.5
20180919010702 82 15 5.0 12.0 0.00 0.00 0.00 74 1010.4
20180919010202 82 15 3.0 9.0 0.00 0.00 0.00 74 1010.4
20180919005702 83 25 1.0 9.0 0.00 0.00 0.00 72 1010.4
20180919005202 84 172 0.0 3.0 0.00 0.00 0.00 69 1010.3
20180919004702 84 173 0.0 1.0 0.00 0.00 0.00 68 1010.2
20180919004202 85 173 0.0 1.0 0.00 0.00 0.00 67 1010.1
20180919003702 85 173 0.0 1.0 0.00 0.00 0.00 65 1010.0
20180919003202 85 173 0.0 1.0 0.00 0.00 0.00 64 1010.0
20180919002702 86 173 0.0 0.0 0.00 0.00 0.00 63 1010.1
20180919002203 86 173 0.0 0.0 0.00 0.00 0.00 63 1010.2
20180919001702 86 173 0.0 0.0 0.00 0.00 0.00 63 1010.1
20180919001202 86 173 0.0 1.0 0.00 0.00 0.00 63 1010.1
20180919000702 87 173 0.0 1.0 0.00 0.00 0.00 62 1010.1
20180919000202 87 173 0.0 1.0 0.00 0.00 0.00 61 1010.1
20180918235702 87 173 0.0 1.0 0.00 0.00 0.00 61 1010.1
20180918235202 87 173 0.0 1.0 0.00 0.00 0.00 61 1010.1
20180918234703 87 173 0.0 5.0 0.00 0.00 0.00 60 1010.0
20180918234202 87 173 1.0 5.0 0.00 0.00 0.00 59 1010.0
20180918233702 87 173 0.0 1.0 0.00 0.00 0.00 59 1010.0
20180918233203 88 173 0.0 1.0 0.00 0.00 0.00 59 1010.0
20180918232703 88 173 0.0 5.0 0.00 0.00 0.00 58 1010.0
20180918232202 88 173 1.0 6.0 0.00 0.00 0.00 57 1009.8
20180918231702 88 173 0.0 7.0 0.00 0.00 0.00 57 1009.8
20180918231203 89 173 1.0 7.0 0.00 0.00 0.00 56 1009.7
20180918230702 89 169 1.0 7.0 0.00 0.00 0.00 55 1009.7
20180918230203 89 171 1.0 6.0 0.00 0.00 0.00 55 1009.6
20180918225702 90 172 1.0 7.0 0.00 0.00 0.00 54 1009.6
20180918225202 90 171 1.0 7.0 0.00 0.00 0.00 53 1009.6
20180918224702 91 197 1.0 7.0 0.00 0.00 0.00 51 1009.6
20180918224202 91 188 1.0 9.0 0.00 0.00 0.00 50 1009.8
20180918223702 92 185 2.0 9.0 0.00 0.00 0.00 52 1009.6
20180918223202 92 190 2.0 9.0 0.00 0.00 0.00 52 1009.6
20180918222704 92 206 1.0 9.0 0.00 0.00 0.00 52 1009.5
20180918222202 92 174 1.0 9.0 0.00 0.00 0.00 52 1009.5
20180918221702 92 195 2.0 9.0 0.00 0.00 0.00 51 1009.5
20180918221203 92 197 0.0 7.0 0.00 0.00 0.00 54 1009.4
20180918220702 92 198 1.0 9.0 0.00 0.00 0.00 52 1009.4
20180918220202 92 198 0.0 13.0 0.00 0.00 0.00 53 1009.4
20180918215702 93 187 3.0 13.0 0.00 0.00 0.00 51 1009.3
20180918215203 93 194 3.0 7.0 0.00 0.00 0.00 52 1009.4
20180918214703 93 172 1.0 7.0 0.00 0.00 0.00 52 1009.4
20180918214202 93 204 0.0 5.0 0.00 0.00 0.00 53 1009.5
20180918213703 92 204 0.0 5.0 0.00 0.00 0.00 54 1009.5
20180918213202 92 215 0.0 5.0 0.00 0.00 0.00 53 1009.6
20180918212702 92 202 1.0 5.0 0.00 0.00 0.00 53 1009.7
20180918212203 92 204 1.0 9.0 0.00 0.00 0.00 54 1009.7
20180918211702 91 205 1.0 9.0 0.00 0.00 0.00 54 1009.7
20180918211202 91 188 2.0 9.0 0.00 0.00 0.00 58 1009.6
20180918210702 90 193 1.0 6.0 0.00 0.00 0.00 59 1009.5
20180918210203 88 231 1.0 5.0 0.00 0.00 0.00 63 1009.6
20180918205702 87 238 0.0 1.0 0.00 0.00 0.00 68 1009.7
20180918205203 86 238 0.0 1.0 0.00 0.00 0.00 68 1009.8
20180918204702 86 238 0.0 1.0 0.00 0.00 0.00 70 1009.9
20180918204202 86 238 0.0 1.0 0.00 0.00 0.00 70 1010.0
20180918203702 86 238 0.0 3.0 0.00 0.00 0.00 69 1010.0
20180918203203 86 238 0.0 5.0 0.00 0.00 0.00 67 1010.1
20180918202702 87 238 0.0 5.0 0.00 0.00 0.00 66 1010.2
20180918202202 87 234 0.0 6.0 0.00 0.00 0.00 65 1010.1
20180918201702 88 234 1.0 6.0 0.00 0.00 0.00 65 1010.2
20180918201202 89 230 0.0 5.0 0.00 0.00 0.00 63 1010.3
20180918200702 90 229 1.0 5.0 0.00 0.00 0.00 59 1010.2
20180918200202 90 215 0.0 8.0 0.00 0.00 0.00 57 1010.1
20180918195702 91 215 0.0 8.0 0.00 0.00 0.00 54 1010.2
20180918195202 91 214 1.0 8.0 0.00 0.00 0.00 53 1010.3
20180918194702 92 182 0.0 8.0 0.00 0.00 0.00 52 1010.3
20180918194203 92 169 1.0 8.0 0.00 0.00 0.00 52 1010.3
20180918193702 92 192 3.0 8.0 0.00 0.00 0.00 50 1010.4
20180918193202 92 189 1.0 12.0 0.00 0.00 0.00 51 1010.5
20180918192703 92 184 5.0 12.0 0.00 0.00 0.00 52 1010.6
20180918192202 91 184 2.0 10.0 0.00 0.00 0.00 53 1010.7
20180918191702 91 184 1.0 12.0 0.00 0.00 0.00 54 1010.8
20180918191202 92 199 7.0 12.0 0.00 0.00 0.00 52 1010.8
20180918190702 92 209 4.0 12.0 0.00 0.00 0.00 53 1011.0
20180918190202 92 213 6.0 12.0 0.00 0.00 0.00 53 1011.0
20180918185702 92 199 4.0 10.0 0.00 0.00 0.00 53 1011.0
20180918185202 91 225 2.0 12.0 0.00 0.00 0.00 56 1011.1
20180918184702 91 210 4.0 12.0 0.00 0.00 0.00 55 1011.2
20180918184202 91 206 5.0 12.0 0.00 0.00 0.00 54 1011.2
20180918183702 91 192 4.0 15.0 0.00 0.00 0.00 53 1011.3
20180918183203 90 188 2.0 15.0 0.00 0.00 0.00 56 1011.4
20180918182702 90 226 3.0 14.0 0.00 0.00 0.00 55 1011.4
20180918182202 91 221 7.0 14.0 0.00 0.00 0.00 54 1011.5
20180918181702 91 203 4.0 14.0 0.00 0.00 0.00 57 1011.6
20180918181202 90 183 5.0 14.0 0.00 0.00 0.00 57 1011.5
20180918180702 90 213 3.0 13.0 0.00 0.00 0.00 56 1011.7
20180918180202 90 185 5.0 15.0 0.00 0.00 0.00 56 1011.7
20180918175702 90 191 6.0 17.0 0.00 0.00 0.00 56 1011.8
20180918175202 90 189 6.0 17.0 0.00 0.00 0.00 56 1011.9
20180918174703 90 203 6.0 15.0 0.00 0.00 0.00 56 1011.9
20180918174202 89 199 4.0 12.0 0.00 0.00 0.00 59 1011.9
20180918173752 89 229 5.0 13.0 0.00 0.00 0.00 58 1012.0
20180918173442 89 213 5.0 15.0 0.00 0.00 0.00 58 1012.0
20180918171702 89 175 2.0 10.0 0.00 0.00 0.00 61 1012.1
20180918171203 88 215 3.0 16.0 0.00 0.00 0.00 62 1012.1
20180918170702 88 218 6.0 16.0 0.00 0.00 0.00 61 1012.2
20180918170203 88 208 3.0 14.0 0.00 0.00 0.00 62 1012.2
20180918165703 88 210 6.0 13.0 0.00 0.00 0.00 63 1012.3
20180918165202 88 208 3.0 15.0 0.00 0.00 0.00 65 1012.4
20180918164703 87 175 5.0 15.0 0.00 0.00 0.00 64 1012.4
20180918164203 87 188 5.0 12.0 0.00 0.00 0.00 65 1012.5
20180918163702 87 202 5.0 10.0 0.00 0.00 0.00 64 1012.5
20180918163202 87 201 2.0 10.0 0.00 0.00 0.00 66 1012.5
20180918162702 86 193 2.0 10.0 0.00 0.00 0.00 67 1012.5
20180918162202 86 199 5.0 10.0 0.00 0.00 0.00 67 1012.5
20180918161703 86 221 3.0 10.0 0.00 0.00 0.00 67 1012.5
20180918161203 86 221 5.0 12.0 0.00 0.00 0.00 67 1012.5
20180918160702 86 197 5.0 12.0 0.00 0.00 0.00 68 1012.5
20180918160202 85 198 5.0 12.0 0.00 0.00 0.00 68 1012.6
20180918155703 85 182 3.0 12.0 0.00 0.00 0.00 69 1012.6
20180918155202 85 219 2.0 7.0 0.00 0.00 0.00 70 1012.6
20180918154702 85 212 1.0 9.0 0.00 0.00 0.00 71 1012.7
20180918154202 85 220 3.0 9.0 0.00 0.00 0.00 72 1012.8
20180918153703 84 205 1.0 9.0 0.00 0.00 0.00 73 1012.7
20180918153202 84 198 2.0 10.0 0.00 0.00 0.00 73 1012.7
20180918152703 84 173 2.0 10.0 0.00 0.00 0.00 72 1012.7
20180918152202 84 214 4.0 9.0 0.00 0.00 0.00 72 1012.8
20180918151702 83 194 0.0 6.0 0.00 0.00 0.00 76 1012.7
20180918151203 83 180 2.0 8.0 0.00 0.00 0.00 74 1012.7
20180918150702 82 180 2.0 8.0 0.00 0.00 0.00 75 1012.7
20180918150203 82 173 0.0 6.0 0.00 0.00 0.00 76 1012.7
20180918145702 81 173 2.0 7.0 0.00 0.00 0.00 77 1012.7
20180918145202 80 173 1.0 7.0 0.00 0.00 0.00 79 1012.8
20180918144702 79 173 0.0 5.0 0.00 0.00 0.00 81 1012.8
20180918144202 79 173 1.0 5.0 0.00 0.00 0.00 80 1012.8
20180918143703 79 173 0.0 7.0 0.00 0.00 0.00 79 1012.8
20180918143203 79 173 1.0 7.0 0.00 0.00 0.00 78 1012.8
20180918142702 79 175 2.0 7.0 0.00 0.00 0.00 77 1012.9
20180918142202 79 177 2.0 8.0 0.00 0.00 0.00 78 1012.9
20180918141702 79 175 1.0 8.0 0.00 0.00 0.00 79 1013.0
20180918141203 78 174 3.0 8.0 0.00 0.00 0.00 79 1013.0
20180918140703 78 177 2.0 8.0 0.00 0.00 0.00 81 1013.1
20180918140203 78 168 1.0 6.0 0.00 0.00 0.00 82 1013.1
20180918135703 77 166 1.0 6.0 0.00 0.00 0.00 83 1013.1
20180918135203 77 166 1.0 5.0 0.00 0.00 0.00 85 1013.2
20180918134703 76 166 1.0 5.0 0.00 0.00 0.00 86 1013.3
20180918134202 76 166 0.0 5.0 0.00 0.00 0.00 87 1013.2
20180918133703 75 166 0.0 3.0 0.00 0.00 0.00 89 1013.2
20180918133202 75 166 0.0 1.0 0.00 0.00 0.00 90 1013.2
20180918132702 74 166 0.0 3.0 0.00 0.00 0.00 90 1013.3
20180918132202 74 166 1.0 3.0 0.00 0.00 0.00 92 1013.2
20180918131702 73 166 0.0 1.0 0.00 0.00 0.00 93 1013.3
20180918131202 73 166 0.0 1.0 0.00 0.00 0.00 93 1013.3
20180918130702 72 166 0.0 1.0 0.00 0.00 0.00 94 1013.3
20180918130202 72 166 0.0 1.0 0.00 0.00 0.00 94 1013.3
20180918125703 72 166 0.0 3.0 0.00 0.00 0.00 94 1013.3
20180918125202 71 166 0.0 3.0 0.00 0.00 0.00 94 1013.4
20180918124702 71 166 0.0 3.0 0.00 0.00 0.00 94 1013.3
20180918124202 71 166 0.0 3.0 0.00 0.00 0.00 94 1013.3
20180918123703 71 166 0.0 1.0 0.00 0.00 0.00 94 1013.3
20180918123202 71 166 0.0 1.0 0.00 0.00 0.00 94 1013.3
20180918122703 71 166 0.0 1.0 0.00 0.00 0.00 94 1013.2
20180918122202 70 166 0.0 1.0 0.00 0.00 0.00 94 1013.2
20180918121703 70 166 0.0 0.0 0.00 0.00 0.00 94 1013.2
20180918121202 70 166 0.0 1.0 0.00 0.00 0.00 94 1013.2
20180918120702 70 166 0.0 1.0 0.00 0.00 0.00 94 1013.2
20180918120202 70 166 0.0 1.0 0.00 0.00 0.00 93 1013.2
20180918115702 70 166 0.0 0.0 0.00 0.00 0.00 93 1013.2
20180918115203 70 166 0.0 0.0 0.00 0.00 0.00 93 1013.1
20180918114703 70 166 0.0 0.0 0.00 0.00 0.00 93 1013.1
20180918114203 70 166 0.0 0.0 0.00 0.00 0.00 93 1013.1
20180918113702 70 166 0.0 0.0 0.00 0.00 0.00 92 1013.0
20180918113202 70 166 0.0 1.0 0.00 0.00 0.00 92 1013.0
20180918112702 70 166 0.0 1.0 0.00 0.00 0.00 92 1013.0
20180918112203 70 166 0.0 0.0 0.00 0.00 0.00 92 1013.0
20180918111703 71 166 0.0 0.0 0.00 0.00 0.00 92 1013.0
20180918111202 71 166 0.0 0.0 0.00 0.00 0.00 92 1013.0
20180918110702 71 166 0.0 0.0 0.00 0.00 0.00 92 1013.0
20180918110202 71 166 0.0 0.0 0.00 0.00 0.00 92 1012.9
20180918105702 71 166 0.0 0.0 0.00 0.00 0.00 92 1013.0
20180918105202 71 166 0.0 0.0 0.00 0.00 0.00 92 1013.0
20180918104702 71 166 0.0 0.0 0.00 0.00 0.00 92 1013.0
20180918104203 71 166 0.0 0.0 0.00 0.00 0.00 92 1013.0
20180918103702 71 166 0.0 1.0 0.00 0.00 0.00 92 1012.9
20180918103202 71 166 0.0 1.0 0.00 0.00 0.00 92 1012.9
20180918102702 71 166 0.0 1.0 0.00 0.00 0.00 92 1012.9
20180918102202 71 166 0.0 1.0 0.00 0.00 0.00 91 1012.9
20180918101702 71 166 0.0 1.0 0.00 0.00 0.00 91 1012.9
20180918101203 71 166 0.0 1.0 0.00 0.00 0.00 91 1012.9
20180918100702 72 166 0.0 1.0 0.00 0.00 0.00 91 1012.8
20180918100203 72 166 0.0 1.0 0.00 0.00 0.00 91 1012.8
20180918095704 72 166 0.0 3.0 0.00 0.00 0.00 91 1012.8
20180918095202 72 166 0.0 3.0 0.00 0.00 0.00 90 1012.8
20180918094703 72 166 0.0 0.0 0.00 0.00 0.00 90 1012.9
20180918094203 72 166 0.0 0.0 0.00 0.00 0.00 90 1012.9
20180918093702 72 166 0.0 0.0 0.00 0.00 0.00 89 1012.9
20180918093203 72 166 0.0 1.0 0.00 0.00 0.00 89 1012.8
20180918092703 72 166 0.0 1.0 0.00 0.00 0.00 89 1012.8
20180918092203 72 166 0.0 1.0 0.00 0.00 0.00 89 1012.8
20180918091702 72 166 0.0 0.0 0.00 0.00 0.00 89 1012.8
20180918091202 72 166 0.0 3.0 0.00 0.00 0.00 89 1012.8
20180918090702 72 166 0.0 3.0 0.00 0.00 0.00 89 1012.8
20180918090203 72 166 0.0 3.0 0.00 0.00 0.00 88 1012.8
20180918085702 72 166 0.0 0.0 0.00 0.00 0.00 87 1012.7
20180918085202 73 166 0.0 0.0 0.00 0.00 0.00 86 1012.8